Weather History for KMRJ - December, 2013

Change the Weather History Date:

Tuesday, December 24, 2013

  Actual Average (KLNR) Record (KLNR)
Temperature  
Mean Temperature -2 °F -  
Max Temperature 10 °F 26 °F 43 °F (2006)
Min Temperature -13 °F 12 °F -25 °F (2000)
Degree Days  
Heating Degree Days 66    
Moisture  
Dew Point -7 °F    
Average Humidity 75    
Maximum Humidity 92    
Minimum Humidity 66    
Precipitation  
Precipitation 0.00 in - - ()
Sea Level Pressure  
Sea Level Pressure 30.37 in    
Wind  
Wind Speed 5 mph (South)    
Max Wind Speed 13 mph    
Max Gust Speed -    
Visibility 8 miles    
Events Snow    
Averages and records for this station are not official NWS values.
T = Trace of Precipitation, MM = Missing Value Source: NWS Daily Summary

Daily Weather History Graph

Daily Weather History Graph

Search for Another Location

Airport or City:

Trip Planner

Search our weather history database for the weather conditions in past years. The results will help you decide how hot, cold, wet, or windy it might be!

Date:

Astronomy

Dec. 24, 2013 Rise Set
Actual Time 7:30 AM CST 4:31 PM CST
Civil Twilight 6:57 AM CST 5:03 PM CST
Nautical Twilight 6:21 AM CST 5:39 PM CST
Astronomical Twilight 5:47 AM CST 6:14 PM CST
Moon 11:50 PM CST (12/24) 11:14 AM CST (12/24)
Length of Visible Light 10h 06m
Length of Day
9h 01m
Waning Gibbous, 58% of the Moon is Illuminated
Dec 24
Waning Gibbous
Dec 25
Last Quarter
Jan 1
New
Jan 7
First Quarter
Jan 15
Full

Hourly Weather History & Observations

Time (CST) Temp. Windchill Dew Point Humidity Pressure Visibility Wind Dir Wind Speed Gust Speed Precip Events Conditions
12:15 AM -7.6 °F -23.4 °F -13.0 °F 77% 30.40 in 10.0 mi West 8.1 mph - N/A   Clear
12:35 AM -7.6 °F -24.6 °F -13.0 °F 77% 30.40 in 10.0 mi WNW 9.2 mph - N/A   Clear
12:55 AM -7.6 °F -20.6 °F -14.8 °F 71% 30.40 in 10.0 mi WNW 5.8 mph - N/A   Clear
1:15 AM -7.6 °F -20.6 °F -14.8 °F 71% 30.40 in 10.0 mi WNW 5.8 mph - N/A   Clear
1:35 AM -9.4 °F -20.9 °F -14.8 °F 77% 30.41 in 10.0 mi WNW 4.6 mph - N/A   Clear
1:55 AM -9.4 °F -20.9 °F -16.6 °F 71% 30.41 in 10.0 mi WNW 4.6 mph - N/A   Clear
2:15 AM -9.4 °F -20.9 °F -14.8 °F 77% 30.41 in 10.0 mi WNW 4.6 mph - N/A   Clear
2:35 AM -9.4 °F -22.7 °F -16.6 °F 71% 30.42 in 10.0 mi WNW 5.8 mph - N/A   Clear
2:55 AM -11.2 °F -24.8 °F -16.6 °F 77% 30.43 in 10.0 mi WNW 5.8 mph - N/A   Clear
3:15 AM -11.2 °F -23.0 °F -16.6 °F 77% 30.43 in 10.0 mi WNW 4.6 mph - N/A   Clear
3:35 AM -9.4 °F -18.6 °F -16.6 °F 71% 30.43 in 10.0 mi WNW 3.5 mph - N/A   Clear
3:55 AM -11.2 °F -23.0 °F -16.6 °F 77% 30.42 in 10.0 mi WNW 4.6 mph - N/A   Clear
4:15 AM -11.2 °F -20.6 °F -16.6 °F 77% 30.43 in 10.0 mi West 3.5 mph - N/A   Clear
4:35 AM -13.0 °F -25.1 °F -18.4 °F 77% 30.43 in 10.0 mi West 4.6 mph - N/A   Clear
4:55 AM -13.0 °F -25.1 °F -18.4 °F 77% 30.43 in 10.0 mi West 4.6 mph - N/A   Clear
5:15 AM -13.0 °F -27.0 °F -18.4 °F 77% 30.43 in 10.0 mi West 5.8 mph - N/A   Clear
5:35 AM -13.0 °F - -18.4 °F 77% 30.43 in 10.0 mi Calm Calm - N/A   Clear
5:55 AM -11.2 °F - -18.4 °F 70% 30.44 in 10.0 mi Calm Calm - N/A   Clear
6:15 AM -13.0 °F - -18.4 °F 77% 30.43 in 10.0 mi Calm Calm - N/A   Scattered Clouds
6:35 AM -13.0 °F - -18.4 °F 77% 30.42 in 10.0 mi Calm Calm - N/A   Mostly Cloudy
6:55 AM -13.0 °F - -18.4 °F 77% 30.43 in 10.0 mi Calm Calm - N/A Snow Light Snow
7:15 AM -11.2 °F - -18.4 °F 70% 30.44 in 10.0 mi Calm Calm - N/A Snow Light Snow
7:35 AM -11.2 °F - -16.6 °F 77% 30.45 in 5.0 mi Calm Calm - N/A Snow Light Snow
7:55 AM -9.4 °F -18.6 °F -16.6 °F 71% 30.46 in 4.0 mi West 3.5 mph - N/A Snow Light Snow
8:15 AM -9.4 °F - -16.6 °F 71% 30.46 in 1.8 mi Calm Calm - N/A Snow Light Snow
8:35 AM -7.6 °F - -14.8 °F 71% 30.47 in 1.2 mi Calm Calm - N/A Snow Light Snow
8:55 AM -7.6 °F - -13.0 °F 77% 30.47 in 1.0 mi Calm Calm - N/A Snow Light Snow
9:15 AM -5.8 °F - -13.0 °F 71% 30.47 in 1.2 mi Calm Calm - N/A Snow Light Snow
9:35 AM -5.8 °F - -11.2 °F 77% 30.47 in 1.2 mi Calm Calm - N/A Snow Light Snow
9:55 AM -4.0 °F - -7.6 °F 85% 30.47 in 3.0 mi Calm Calm - N/A Snow Light Snow
10:15 AM -0.4 °F -8.3 °F -7.6 °F 72% 30.46 in 10.0 mi SE 3.5 mph - N/A Snow Light Snow
10:35 AM -0.4 °F - -5.8 °F 78% 30.45 in 10.0 mi Calm Calm - N/A   Clear
10:55 AM -0.4 °F - -5.8 °F 78% 30.45 in 10.0 mi Calm Calm - N/A   Clear
11:15 AM 1.4 °F -6.2 °F -5.8 °F 72% 30.43 in 10.0 mi SSE 3.5 mph - N/A   Clear
11:35 AM 3.2 °F - -5.8 °F 66% 30.43 in 10.0 mi Calm Calm - N/A   Clear
11:55 AM 3.2 °F - -4.0 °F 72% 30.43 in 10.0 mi Calm Calm - N/A   Clear
12:15 PM 3.2 °F - -4.0 °F 72% 30.42 in 10.0 mi Calm Calm - N/A   Clear
12:35 PM 5.0 °F -2.1 °F -4.0 °F 66% 30.42 in 10.0 mi South 3.5 mph - N/A   Clear
12:55 PM 5.0 °F -4.1 °F -4.0 °F 66% 30.40 in 10.0 mi SSE 4.6 mph - N/A   Clear
1:15 PM 5.0 °F -6.9 °F -4.0 °F 66% 30.38 in 10.0 mi SE 6.9 mph - N/A   Clear
1:35 PM 6.8 °F -4.8 °F -0.4 °F 72% 30.36 in 10.0 mi SE 6.9 mph - N/A   Clear
1:55 PM 8.6 °F -1.3 °F -0.4 °F 67% 30.36 in 10.0 mi SSE 5.8 mph - N/A   Clear
2:15 PM 8.6 °F -1.3 °F -0.4 °F 67% 30.37 in 10.0 mi South 5.8 mph - N/A   Clear
2:35 PM 8.6 °F 0.1 °F -0.4 °F 67% 30.37 in 10.0 mi South 4.6 mph - N/A   Clear
2:55 PM 6.8 °F -5.9 °F -0.4 °F 72% 30.39 in 10.0 mi SSW 8.1 mph - N/A   Clear
3:15 PM 8.6 °F -1.3 °F -0.4 °F 67% 30.37 in 10.0 mi South 5.8 mph - N/A   Clear
3:35 PM 6.8 °F -4.8 °F -0.4 °F 72% 30.38 in 10.0 mi SSW 6.9 mph - N/A   Clear
3:55 PM 5.0 °F -2.1 °F -0.4 °F 78% 30.36 in 10.0 mi SSE 3.5 mph - N/A   Clear
4:15 PM 5.0 °F -5.6 °F -0.4 °F 78% 30.34 in 10.0 mi SE 5.8 mph - N/A   Clear
4:35 PM 6.8 °F -4.8 °F 1.4 °F 79% 30.33 in 10.0 mi SE 6.9 mph - N/A   Mostly Cloudy
4:55 PM 8.6 °F -2.6 °F 1.4 °F 73% 30.33 in 10.0 mi SSE 6.9 mph - N/A   Overcast
5:15 PM 8.6 °F -2.6 °F 1.4 °F 73% 30.34 in 10.0 mi SSE 6.9 mph - N/A   Overcast
5:35 PM 8.6 °F 0.1 °F 1.4 °F 73% 30.33 in 10.0 mi SE 4.6 mph - N/A   Mostly Cloudy
5:55 PM 8.6 °F -2.6 °F 1.4 °F 73% 30.32 in 10.0 mi SE 6.9 mph - N/A   Overcast
6:15 PM 8.6 °F -4.7 °F 1.4 °F 73% 30.30 in 10.0 mi SE 9.2 mph - N/A   Overcast
6:35 PM 6.8 °F -6.9 °F 1.4 °F 79% 30.30 in 10.0 mi SE 9.2 mph - N/A   Overcast
6:55 PM 6.8 °F -7.8 °F -0.4 °F 72% 30.30 in 10.0 mi SE 10.4 mph - N/A   Overcast
7:15 PM 6.8 °F -7.8 °F -0.4 °F 72% 30.31 in 10.0 mi SSE 10.4 mph - N/A   Overcast
7:35 PM 5.0 °F -10.8 °F -0.4 °F 78% 30.31 in 10.0 mi SSE 11.5 mph - N/A   Overcast
7:55 PM 6.8 °F -8.6 °F -0.4 °F 72% 30.29 in 3.0 mi SSE 11.5 mph - N/A Snow Light Snow
8:15 PM 5.0 °F -10.0 °F 1.4 °F 85% 30.30 in 2.0 mi SSE 10.4 mph - N/A Snow Light Snow
8:35 PM 5.0 °F -11.6 °F 1.4 °F 85% 30.29 in 3.0 mi SSE 12.7 mph - N/A Snow Light Snow
8:55 PM 6.8 °F -7.8 °F 1.4 °F 79% 30.27 in 2.0 mi SE 10.4 mph - N/A Snow Light Snow
9:15 PM 6.8 °F -7.8 °F 3.2 °F 85% 30.26 in 1.2 mi SE 10.4 mph - N/A Snow Light Snow
9:35 PM 8.6 °F -4.7 °F 3.2 °F 79% 30.25 in 1.8 mi SSE 9.2 mph - N/A Snow Light Snow
9:55 PM 8.6 °F -5.5 °F 3.2 °F 79% 30.25 in 7.0 mi SSE 10.4 mph - N/A Snow Light Snow
10:15 PM 8.6 °F -5.5 °F 3.2 °F 79% 30.24 in 10.0 mi SSE 10.4 mph - N/A   Overcast
10:35 PM 8.6 °F -5.5 °F 5.0 °F 85% 30.24 in 10.0 mi SSE 10.4 mph - N/A   Overcast
10:55 PM 10.4 °F -3.3 °F 5.0 °F 79% 30.23 in 10.0 mi SSE 10.4 mph - N/A   Overcast
11:10 PM 10.4 °F -3.3 °F 5.0 °F 79% 30.22 in 10.0 mi SSE 10.4 mph - N/A Snow Light Snow
11:35 PM 10.4 °F -3.3 °F 6.8 °F 85% 30.21 in 4.0 mi SSE 10.4 mph - N/A Snow Light Snow
11:55 PM 10.4 °F -4.1 °F 8.6 °F 92% 30.20 in 1.8 mi SSE 11.5 mph - N/A Snow Light Snow